Regional Weather Roundup
Issued by NWS Jackson, KY

Home | Current Version | Previous Version | Graphics & Text | Print | Product List | Glossary On
Versions: 1 2 3 4 5 6 7 8 9 10 11 12 13 14 15 16 17 18 19 20 21 22 23 24 25 26 27
000
ASUS43 KJKL 170510
RWRJKL

EAST KENTUCKY HOURLY WEATHER ROUNDUP
NATIONAL WEATHER SERVICE JACKSON KY
1200 AM EST SUN DEC 17 2017

NOTE: "FAIR" INDICATES FEW OR NO CLOUDS BELOW 12,000 FEET WITH
NO SIGNIFICANT WEATHER AND/OR OBSTRUCTIONS TO VISIBILITY.

* THESE REPORTS ARE NOT UNDER NWS QUALITY CONTROL AND MAY NOT
  REPORT WEATHER SUCH AS PRECIPITATION AND FOG.

KYZ079-080-083-085-087-088-110-112-115-119-120-170600
...EASTERN KENTUCKY...

CITY           SKY/WX    TMP DP  RH WIND       PRES   REMARKS
JACKSON        CLOUDY    38  26  62 SW5       30.23R WCI  34
LONDON         CLOUDY    32  25  75 CALM      30.23S
SOMERSET*      CLOUDY    36  28  75 S6        30.26R WCI  31
MONTICELLO*    MOCLDY    30  27  88 N8        30.26R WCI  22
WILLIAMSBURG*  CLOUDY    32  28  86 S5        30.24S WCI  27
MIDDLESBORO*   CLOUDY    29  26  90 CALM      30.28R
HARLAN APT*    CLOUDY    32  27  80 CALM      30.25R
PIKE CO APT*     N/A     39  25  58 SE3       30.23S
BIG SANDY APT* CLOUDY    41  27  57 S3        30.23S
MOREHEAD APT*  CLEAR     41  27  56 SW9       30.23S
$$

KYZ035-036-041-042-044-050-067-078-099-170600
...CENTRAL KENTUCKY...

CITY           SKY/WX    TMP DP  RH WIND       PRES   REMARKS
MT STERLING*   CLOUDY    37  28  70 SW7       30.23S WCI  32
FLEMING/MASON* CLEAR     36  28  74 SW7       30.22R WCI  30
DANVILLE*      CLOUDY    37  30  75 S7        30.22S WCI  32
LEXINGTON      CLOUDY    37  28  70 S10       30.21R WCI  30
FRANKFORT      CLOUDY    39  27  62 SW9       30.20R WCI  33
LOUISVILLE     CLOUDY    44  29  55 S7        30.20R
LEBANON*         N/A     41  28  60 S12       30.21S
GLASGOW*       MOCLDY    40  30  66 S5        30.23R
BOWLING GREEN  CLOUDY    43  31  62 S7        30.23R
$$

KYZ091>093-OHZ055-061-077-WVZ005-015-034-035-042-170600
...SOUTHERN OHIO/WEST VIRGINIA...

CITY           SKY/WX    TMP DP  RH WIND       PRES   REMARKS
COVINGTON      PTCLDY    40  30  67 SW7       30.17R
COLUMBUS       CLOUDY    35  27  72 S5        30.17R WCI  31
DAYTON         PTCLDY    37  28  70 S9        30.16R WCI  30
WILMINGTON     CLEAR     34  29  82 SW10      30.17R WCI  26
HUNTINGTON     CLEAR     40  25  55 S6        30.22R
CHARLESTON     CLOUDY    33  25  72 CALM      30.22R
PINEVILLE*       N/A     26  23  91 MISG      30.30R
BECKLEY        CLOUDY    32  22  66 SW7       30.21R WCI  26
BLUEFIELD      CLOUDY    33  21  61 W10       30.22R WCI  25
LOGAN CO APT*    N/A     37  25  60 CALM      30.23R
$$

VAZ002-007-008-TNZ017-027-036-066-071-170600
...SOUTHWEST VIRGINIA/EAST TENNESSEE...

CITY           SKY/WX    TMP DP  RH WIND       PRES   REMARKS
WISE*          CLOUDY    34  28  80 S6        30.23S WCI  29
JONESVILLE*      N/A     27  25  93 CALM      30.29R
ABINGDON*      CLOUDY    32  26  78 CALM      30.26S
BRISTOL        MOCLDY    28  25  88 CALM      30.28R
MORRISTOWN*    CLEAR     32  27  80 CALM      30.26S
SEVIERVILLE*   CLEAR     28  27  93 CALM      30.28S
KNOXVILLE      CLOUDY    32  29  88 CALM      30.27R
LAFOLLETTE*    CLEAR     30  28  93 CALM      30.30R
OAK RIDGE      PTCLDY    32  28  85 CALM      30.28F
CROSSVILLE     CLOUDY    36  26  67 CALM      30.24R
NASHVILLE      CLOUDY    43  30  60 S3        30.24R
$$

...KEY TO REMARKS...
VSB - VISIBILITY IN MILES
WCI - WIND CHILL INDEX
HX  - HEAT INDEX

$$




USA.gov is the U.S. government's official web portal to all federal, state and local government web resources and services.